Weather Roundup
Issued by NWS Springfield, MO

Home | Current Version | Previous Version | Text Only | Print | Product List | Glossary Off
Versions: 1 2 3 4 5 6 7 8 9 10 11 12 13 14 15 16 17 18 19 20 21 22 23 24 25 26 27 28 29 30 31 32 33 34 35 36 37 38 39 40 41 42 43 44 45 46 47 48 49 50

000
NZUS99 KSGF 302207
HRRSGF

HOURLY WEATHER
NATIONAL WEATHER SERVICE SPRINGFIELD MO
500 PM CDT TUE AUG 30 2016

......SGF CWA......

CITY           SKY/WX    TMP DP  RH WIND       PRES   REMARKS
SPRINGFIELD    SUNNY     91  67  44 NE12      30.06F HX  94
JOPLIN         MOSUNNY   92  70  48 VRB6      30.04F HX  97
WEST PLAINS    MOSUNNY   91  69  48 VRB7      30.08F HX  96
ROLLA          LGT RAIN  74  71  91 SE5       30.11S
OSAGE BEACH    LGT RAIN  78  71  79 CALM      30.10F
BRANSON        MOSUNNY   88  70  55 E7        30.07F HX  92

......SURROUNDING SGF CWA......

CITY           SKY/WX    TMP DP  RH WIND       PRES   REMARKS
CHANUTE        MOSUNNY   91  71  51 NE8       30.04F HX  97
PARSONS        CLOUDY    91  70  49 MISG      30.04F HX  96
COFFEYVILLE    MOSUNNY   91  71  51 NE6       30.02F HX  97
EMPORIA        TSTM      75  72  90 W9        30.10R FOG
GROVE OK       SUNNY     95  68  41 E5        30.03F HX  99
ROGERS AR      SUNNY     90  70  51 E10       30.06F HX  95
SILOAM SPRINGS SUNNY     90  64  43 E3        30.05F HX  91
HARRISON AR    MOSUNNY   87  73  62 E6        30.07F HX  94
NEAR YELLVILLE SUNNY     91  66  43 E7        30.02F HX  94

......KANSAS AND MISSOURI......

CITY           SKY/WX    TMP DP  RH WIND       PRES   REMARKS
KANSAS CTY INT MOSUNNY   86  70  58 N6        30.09F HX  90
DOWNTOWN KC    MOSUNNY   85  70  60 N8        30.07F
COLUMBIA       CLOUDY    77  71  82 SE5       30.09F
SEDALIA        CLOUDY    80  69  69 SE12      30.10S THUNDER
ST JOSEPH      MOSUNNY   83  71  67 N6        30.10S
ST LOUIS       LGT RAIN  75  72  90 S6        30.09F
SPIRIT OF STL  TSTM      73  71  93 E8        30.07F FOG
KIRKSVILLE     MOSUNNY   84  70  62 N8        30.10F
WICHITA        PTSUNNY   87  68  52 N8        30.05F HX  90
TOPEKA         MOSUNNY   84  72  67 NE6       30.08F
OLATHE         CLOUDY    85  69  58 N5        30.08F

......TENNESSEE......

CITY           SKY/WX    TMP DP  RH WIND       PRES   REMARKS
MEMPHIS        MOSUNNY   96  66  37 NE9       29.99F HX  99
NASHVILLE      MOSUNNY   92  67  43 NE7       30.02F HX  95

......ARKANSAS.......

CITY           SKY/WX    TMP DP  RH WIND       PRES   REMARKS
FAYETTEVILLE   SUNNY     91  68  46 E5        30.04F HX  95
FT SMITH       CLOUDY    85  69  58 N7        30.01S
LITTLE ROCK    MOSUNNY   94  70  45 NE9       29.99S HX 100

......OKLAHOMA.......

CITY           SKY/WX    TMP DP  RH WIND       PRES   REMARKS
TULSA          MOSUNNY   94  70  45 VRB3      29.98F HX 100
PONCA CITY     SUNNY     91  67  44 E5        30.02F HX  94
MCALESTER      CLOUDY    96  67  38 MISG      30.01S HX 100
OKLAHOMA CITY  PTSUNNY   92  63  38 SE9       30.02F HX  93

......IOWA............

CITY           SKY/WX    TMP DP  RH WIND       PRES   REMARKS
DES MOINES     CLOUDY    81  67  62 N8        30.11S
QUAD CITIES    CLOUDY    85  71  63 W6        30.06F HX  90

......ILLINOIS........

CITY           SKY/WX    TMP DP  RH WIND       PRES   REMARKS
QUINCY         PTSUNNY   79  72  79 VRB3      30.09F
CHICAGO        PTSUNNY   77  67  71 N17G24    30.06S




USA.gov is the U.S. government's official web portal to all federal, state and local government web resources and services.